Location: Cheching
(60.0667°N, 164.2167°W)
Time: 21:15:51
(UTC+00:00)

LilacSat-2 - Pass Details

Date: 23 January 2021
Orbit: 512 x 534 km, 97.5° (Epoch: 07 March)

Event Time Altitude Azimuth Distance (km) Brightness Sun altitude
Rises 17:00:46 0° 16° (NNE) 2,689 ? -17.6°
Reaches altitude 10° 17:02:54 10° 19° (NNE) 1,797 ? -17.4°
Maximum altitude 17:06:46 71° 104° (ESE) 571 ? -16.9°
Drops below altitude 10° 17:10:38 10° 189° (S) 1,790 ? -16.4°
Sets 17:12:45 0° 192° (SSW) 2,678 ? -16.1°
